Flag for India Weather past 2 weeks in Panipat, Haryana, India

Now
88 °F

Haze.


Feels Like: 89 °F
Forecast: 75 / 95 °F
Wind: 6 mph from Northeast

Location: New Delhi Palam Airport

Current Time: Sep 23, 2014 at 8:44:24 PM

Latest Report: Sep 23, 2014 at 8:00 PM


Visibility: 2 mi

Pressure: 29.71 "Hg

Humidity: 46%

Dew point: 64 °F

Location of PanipatLocation

Historic Weather in Panipat — Graph

°F

Panipat temperature yesterday

Maximum temperature yesterday: 97 °F (at 3:00 PM)
Minimum temperature yesterday: 77 °F (at 6:30 AM)
Average temperature yesterday: 86 °F

Past Weeks' High & Low Weather Summary

 TemperatureHumidityPressure
High99 °F (Sep 23, 3:30 PM)100% (Sep 11, 7:00 AM)29.80 "Hg (Sep 11, 7:00 AM)
Low73 °F (Sep 15, 1:30 AM)30% (Sep 23, 5:30 PM)29.59 "Hg (Sep 9, 3:30 PM)
Average85 °F68%29.69 "Hg
* Reported Sep 8 7:30 PM — Sep 23 7:30 PM, Panipat, Weather by CustomWeather, © 2014

Note: Actual official high and low records may vary slightly from our data, if they occured in-between our weather recording intervals... More about our weather records

Advertising

Panipat weather history for previous 24 hours

 ConditionsComfort  
Time TempWeatherWind HumidityBarometerVisibility
7:30 PM
Sep 23
90 °FHaze.6 mph33%29.68 "Hg2 mi
6:30 PM93 °FHaze.6 mph32%29.65 "Hg2 mi
6:00 PM95 °FHaze.8 mph32%29.65 "Hg3 mi
5:30 PM97 °FHaze.9 mph30%29.65 "Hg3 mi
5:00 PM99 °FHaze.12 mph31%29.65 "Hg3 mi
4:30 PM99 °FHaze.13 mph33%29.65 "Hg3 mi
4:00 PM99 °FHaze.9 mph33%29.65 "Hg3 mi
3:30 PM99 °FHaze.9 mph33%29.65 "Hg3 mi
3:00 PM97 °FHaze.12 mph34%29.65 "Hg3 mi
2:30 PM97 °FHaze.12 mph34%29.68 "Hg3 mi
2:00 PM95 °FHaze.12 mph36%29.68 "Hg3 mi
1:30 PM93 °FHaze.12 mph39%29.68 "Hg3 mi
1:00 PM93 °FHaze.12 mph41%29.71 "Hg3 mi
12:30 PM93 °FHaze.12 mph41%29.71 "Hg3 mi
12:00 PM93 °FHaze.12 mph41%29.74 "Hg3 mi
11:30 AM91 °FHaze.12 mph44%29.74 "Hg3 mi
11:00 AM90 °FHaze.12 mph46%29.74 "Hg3 mi
10:30 AM90 °FHaze.12 mph46%29.74 "Hg3 mi
10:00 AM88 °FHaze.12 mph49%29.74 "Hg3 mi
9:30 AM88 °FHaze.12 mph49%29.74 "Hg3 mi
9:00 AM84 °FHaze.14 mph55%29.74 "Hg3 mi
8:30 AM81 °FHaze.10 mph66%29.74 "Hg3 mi
8:00 AM79 °FHaze.9 mph70%29.74 "Hg3 mi
7:30 AM77 °FHaze.8 mph74%29.74 "Hg3 mi
7:00 AM75 °FHaze.6 mph74%29.71 "Hg3 mi
6:30 AM75 °FHaze.6 mph74%29.71 "Hg3 mi
6:00 AM75 °FHaze.5 mph74%29.71 "Hg3 mi
5:30 AM77 °FHaze.6 mph69%29.71 "Hg3 mi
5:00 AM77 °FHaze.5 mph69%29.71 "Hg3 mi
4:30 AM77 °FHaze.3 mph69%29.71 "Hg3 mi
4:00 AM77 °FHaze.5 mph69%29.71 "Hg3 mi
3:30 AM77 °FHaze.5 mph69%29.71 "Hg3 mi
3:00 AM79 °FHaze.3 mph61%29.71 "Hg3 mi
2:30 AM79 °FHaze.5 mph61%29.71 "Hg3 mi
1:30 AM81 °FHaze.6 mph58%29.71 "Hg3 mi
1:00 AM82 °FClear.5 mph62%29.71 "Hg2 mi
12:30 AM82 °FClear.5 mph66%29.74 "Hg2 mi
12:00 AM82 °FClear.5 mph70%29.74 "Hg2 mi
11:30 PM
Sep 22
82 °FClear.5 mph74%29.74 "Hg2 mi
11:00 PM82 °FHaze.6 mph74%29.74 "Hg2 mi
10:30 PM82 °FHaze.6 mph74%29.74 "Hg2 mi
10:00 PM82 °FHaze.5 mph70%29.74 "Hg2 mi
9:30 PM84 °FHaze.6 mph62%29.71 "Hg2 mi
9:00 PM86 °FHaze.6 mph59%29.71 "Hg2 mi
8:30 PM88 °FHaze.6 mph55%29.71 "Hg2 mi
8:00 PM88 °FHaze.6 mph52%29.71 "Hg2 mi
Weather by CustomWeather, © 2014

See weather overviewHow to use our weather pages